Weather History for Bismarck, ND

Change the Weather History Date:

Thursday, May 16, 2013

  Actual Average Record
Temperature  
Mean Temperature 55 °F 56 °F  
Max Temperature 60 °F 69 °F 94 °F (1934)
Min Temperature 50 °F 43 °F 22 °F (1925)
Degree Days  
Heating Degree Days 10 10  
Month to date heating degree days 233 195  
Since 1 July heating degree days 8756 8350  
Cooling Degree Days 0 0  
Month to date cooling degree days 8 0  
Year to date cooling degree days 8 1  
Growing Degree Days 5 (Base 50)    
Moisture  
Dew Point 48 °F    
Average Humidity 74    
Maximum Humidity 93    
Minimum Humidity 55    
Precipitation  
Precipitation 0.23 in 0.08 in 0.80 in (1889)
Month to date precipitation 0.23 1.12  
Year to date precipitation 3.46 4.19  
Snow  
Snow 0.00 in 0.00 in T in (2002)
Month to date snowfall 0.0 0.4  
Since 1 July snowfall 57.3 51.2  
Snow Depth 0.00 in    
Sea Level Pressure  
Sea Level Pressure 29.90 in    
Wind  
Wind Speed 8 mph (ENE)    
Max Wind Speed 23 mph    
Max Gust Speed 30 mph    
Visibility 9 miles    
Events Rain    
T = Trace of Precipitation, MM = Missing Value Source: NWS Daily Summary

Daily Weather History Graph

Daily Weather History Graph

Search for Another Location

Airport:

Trip Planner

Search our weather history database for the weather conditions in past years. The results will help you decide how hot, cold, wet, or windy it might be!

Date:

Astronomy

May. 16, 2013 Rise Set
Actual Time 6:06 AM CDT 9:12 PM CDT
Civil Twilight 5:30 AM CDT 9:48 PM CDT
Nautical Twilight 4:44 AM CDT 10:35 PM CDT
Astronomical Twilight 3:47 AM CDT 11:33 PM CDT
Moon 11:49 AM CDT (5/16) 1:28 AM CDT (5/16)
Length of Visible Light 16h 18m
Length of Day
15h 05m
Waxing Crescent, 36% of the Moon is Illuminated
May 16
Waxing Crescent
May 17
First Quarter
May 24
Full
May 31
Last Quarter
Jun 8
New

Hourly Weather History & Observations

Time (CDT) Temp. Dew Point Humidity Pressure Visibility Wind Dir Wind Speed Gust Speed Precip Events Conditions
12:52 AM 55.0 °F 39.0 °F 55% 29.89 in 10.0 mi East 3.5 mph - N/A   Partly Cloudy
1:52 AM 54.0 °F 39.0 °F 57% 29.88 in 10.0 mi NE 4.6 mph - N/A   Scattered Clouds
2:52 AM 52.0 °F 39.9 °F 63% 29.88 in 10.0 mi NNE 6.9 mph - 0.00 in   Scattered Clouds
3:52 AM 53.1 °F 39.9 °F 61% 29.88 in 10.0 mi ESE 4.6 mph - 0.00 in   Mostly Cloudy
4:52 AM 53.1 °F 39.9 °F 61% 29.89 in 10.0 mi Calm Calm - N/A   Overcast
5:52 AM 53.1 °F 42.1 °F 66% 29.91 in 10.0 mi SW 3.5 mph - N/A   Overcast
6:52 AM 52.0 °F 45.0 °F 77% 29.90 in 6.0 mi NNE 4.6 mph - 0.00 in Rain Rain
7:52 AM 55.0 °F 46.9 °F 74% 29.89 in 10.0 mi Calm Calm - 0.01 in   Overcast
8:52 AM 57.0 °F 48.9 °F 74% 29.90 in 10.0 mi NNE 3.5 mph - 0.00 in Rain Light Rain
9:52 AM 57.9 °F 50.0 °F 75% 29.93 in 10.0 mi Calm Calm - 0.00 in   Overcast
10:52 AM 59.0 °F 51.1 °F 75% 29.91 in 10.0 mi East 8.1 mph - 0.00 in Rain Light Rain
11:52 AM 59.0 °F 53.1 °F 81% 29.93 in 10.0 mi NE 4.6 mph - 0.00 in   Overcast
12:52 PM 59.0 °F 55.0 °F 87% 29.93 in 6.0 mi NE 8.1 mph - 0.02 in Rain Light Rain
1:52 PM 57.0 °F 54.0 °F 89% 29.93 in 10.0 mi NNE 10.4 mph - 0.03 in Rain Light Rain
2:52 PM 55.0 °F 52.0 °F 89% 29.93 in 7.0 mi NE 19.6 mph 26.5 mph 0.08 in Rain Light Rain
3:52 PM 54.0 °F 52.0 °F 93% 29.94 in 8.0 mi ENE 19.6 mph 28.8 mph 0.08 in Rain Light Rain
4:52 PM 54.0 °F 52.0 °F 93% 29.90 in 10.0 mi ENE 15.0 mph 27.6 mph 0.01 in   Overcast
5:52 PM 54.0 °F 51.1 °F 90% 29.89 in 10.0 mi ENE 20.7 mph 26.5 mph N/A   Overcast
6:52 PM 54.0 °F 51.1 °F 90% 29.89 in 10.0 mi East 15.0 mph - N/A   Overcast
7:52 PM 54.0 °F 51.1 °F 90% 29.87 in 10.0 mi East 17.3 mph - N/A   Overcast
8:52 PM 54.0 °F 51.1 °F 90% 29.88 in 10.0 mi East 6.9 mph - N/A   Overcast
9:52 PM 54.0 °F 51.1 °F 90% 29.90 in 10.0 mi East 6.9 mph - N/A   Overcast
10:52 PM 54.0 °F 50.0 °F 86% 29.90 in 10.0 mi East 12.7 mph - N/A   Overcast
11:52 PM 53.1 °F 50.0 °F 89% 29.91 in 10.0 mi ENE 6.9 mph - N/A   Overcast